QPF
0.00 0.00 0.00 0.01 0.00 0.01 0.01 0.01 0.02 0.02 0.00 0.00 0.00 0.00 0.00 0.00 0.00 0.00 0.00 0.00 0.00 0.00 0.00 0.00 0.00 0.00 0.00 0.00 0.03 0.01 0.00 0.00 0.00 0.00 0.00 0.00 0.00 0.00 0.00 0.00 0.00 0.00 0.00
0.00 0.00 0.00 0.01 0.01 0.00 0.01 0.01 0.03 0.01 0.00 0.00 0.00 0.00 0.00 0.00 0.00 0.00 0.00 0.00 0.00 0.00 0.00 0.01 0.02 0.00 0.00 0.00 0.01 0.00 0.00 0.00 0.00 0.00 0.00 0.00 0.00 0.00 0.00 0.00 0.01 0.04 0.04
0.00 0.00 0.00 0.00 0.00 0.00 0.00 0.00 0.00 0.00 0.01 0.01 0.02 0.02 0.00 0.00 0.00 0.00 0.00 0.00 0.00 0.00 0.00 0.02 0.00 0.00 0.00 0.00 0.00 0.00 0.00 0.00 0.00 0.01 0.01 0.05 0.00 0.02 0.01 0.04 0.07 0.05 0.03
0.00 0.00 0.00 0.00 0.01 0.00 0.00 0.00 0.02 0.01 0.01 0.01 0.02 0.04 0.00 0.00 0.00 0.00 0.01 0.00 0.00 0.00 0.01 0.00 0.00 0.00 0.00 0.00 0.00 0.00 0.00 0.00 0.00 0.00 0.01 0.00 0.00 0.02 0.01 0.00 0.00 0.00 0.00
0.00 0.01 0.01 0.00 0.02 0.01 0.00 0.00 0.02 0.02 0.01 0.02 0.01 0.02 0.01 0.00 0.00 0.00 0.03 0.03 0.01 0.00 0.01 0.00 0.00 0.00 0.00 0.00 0.00 0.00 0.00 0.00 0.00 0.00 0.00 0.00 0.00 0.00 0.00 0.00 0.00 0.00 0.00
0.00 0.01 0.06 0.03 0.02 0.02 0.01 0.00 0.00 0.01 0.00 0.01 0.01 0.00 0.00 0.00 0.00 0.00 0.02 0.01 0.00 0.00 0.00 0.00 0.00 0.00 0.00 0.00 0.00 0.00 0.00 0.00 0.00 0.00 0.00 0.00 0.00 0.00 0.00 0.00 0.00 0.00 0.00
0.00 0.00 0.01 0.06 0.05 0.03 0.05 0.04 0.03 0.02 0.02 0.01 0.02 0.01 0.00 0.00 0.00 0.00 0.01 0.01 0.02 0.00 0.00 0.00 0.00 0.00 0.00 0.00 0.00 0.00 0.00 0.00 0.00 0.00 0.00 0.00 0.00 0.00 0.00 0.00 0.00 0.00 0.00
0.00 0.00 0.00 0.00 0.02 0.06 0.07 0.06 0.07 0.06 0.02 0.01 0.01 0.00 0.00 0.00 0.00 0.01 0.01 0.01 0.03 0.01 0.00 0.00 0.00 0.00 0.00 0.00 0.00 0.00 0.00 0.00 0.00 0.00 0.00 0.00 0.00 0.00 0.00 0.00 0.00 0.00 0.00
0.00 0.00 0.00 0.01 0.00 0.02 0.03 0.02 0.02 0.04 0.06 0.03 0.01 0.01 0.01 0.01 0.01 0.02 0.02 0.01 0.03 0.02 0.00 0.00 0.00 0.00 0.00 0.00 0.00 0.00 0.00 0.00 0.00 0.00 0.00 0.00 0.00 0.00 0.00 0.00 0.00 0.00 0.00
0.00 0.00 0.00 0.00 0.02 0.02 0.00 0.00 0.00 0.00 0.01 0.02 0.02 0.01 0.01 0.00 0.00 0.01 0.05 0.01 0.02 0.04 0.00 0.00 0.00 0.00 0.00 0.00 0.00 0.00 0.00 0.00 0.00 0.00 0.00 0.00 0.00 0.00 0.00 0.00 0.00 0.00 0.00
0.00 0.00 0.00 0.00 0.00 0.01 0.02 0.02 0.00 0.00 0.02 0.03 0.01 0.00 0.00 0.00 0.00 0.00 0.01 0.00 0.00 0.01 0.00 0.00 0.00 0.00 0.00 0.00 0.00 0.00 0.00 0.00 0.00 0.00 0.00 0.00 0.00 0.00 0.00 0.00 0.00 0.00 0.00
0.00 0.00 0.00 0.00 0.00 0.00 0.01 0.01 0.01 0.00 0.00 0.00 0.00 0.00 0.00 0.00 0.00 0.00 0.00 0.01 0.01 0.00 0.00 0.00 0.00 0.00 0.00 0.00 0.00 0.00 0.00 0.00 0.00 0.00 0.00 0.00 0.00 0.00 0.00 0.00 0.00 0.00 0.00
0.00 0.00 0.00 0.00 0.00 0.00 0.00 0.01 0.04 0.01 0.00 0.00 0.00 0.00 0.00 0.00 0.00 0.01 0.01 0.00 0.00 0.00 0.00 0.00 0.00 0.00 0.00 0.00 0.00 0.00 0.00 0.00 0.00 0.00 0.00 0.00 0.00 0.00 0.00 0.00 0.00 0.00 0.00
0.00 0.00 0.00 0.00 0.00 0.00 0.00 0.00 0.01 0.03 0.02 0.00 0.00 0.00 0.00 0.00 0.00 0.01 0.01 0.01 0.01 0.00 0.00 0.00 0.00 0.00 0.00 0.00 0.00 0.00 0.00 0.00 0.00 0.00 0.00 0.00 0.00 0.00 0.00 0.00 0.00 0.00 0.00
0.00 0.00 0.00 0.00 0.00 0.00 0.00 0.00 0.00 0.02 0.03 0.00 0.00 0.00 0.00 0.00 0.00 0.00 0.02 0.02 0.01 0.01 0.00 0.00 0.00 0.00 0.00 0.00 0.00 0.00 0.00 0.00 0.00 0.00 0.00 0.00 0.00 0.00 0.00 0.00 0.00 0.00 0.00
0.00 0.00 0.00 0.00 0.00 0.00 0.00 0.00 0.00 0.01 0.03 0.02 0.00 0.00 0.00 0.00 0.00 0.00 0.00 0.01 0.01 0.01 0.00 0.00 0.00 0.00 0.00 0.00 0.00 0.00 0.00 0.00 0.00 0.00 0.00 0.00 0.00 0.00 0.00 0.00 0.00 0.00 0.00
0.00 0.00 0.00 0.00 0.00 0.00 0.00 0.00 0.00 0.00 0.03 0.06 0.03 0.00 0.00 0.00 0.00 0.00 0.00 0.01 0.01 0.01 0.01 0.00 0.00 0.00 0.00 0.00 0.00 0.00 0.00 0.00 0.00 0.00 0.00 0.00 0.00 0.00 0.00 0.00 0.00 0.00 0.00
0.00 0.00 0.00 0.00 0.00 0.00 0.00 0.00 0.00 0.00 0.00 0.01 0.06 0.07 0.01 0.01 0.00 0.00 0.00 0.01 0.02 0.04 0.03 0.03 0.03 0.00 0.00 0.00 0.00 0.00 0.00 0.00 0.00 0.00 0.00 0.00 0.00 0.00 0.00 0.00 0.00 0.00 0.00
0.00 0.00 0.00 0.00 0.00 0.00 0.00 0.00 0.00 0.00 0.00 0.00 0.05 0.10 0.09 0.02 0.02 0.04 0.01 0.00 0.02 0.03 0.05 0.03 0.04 0.03 0.00 0.00 0.00 0.00 0.00 0.00 0.00 0.00 0.00 0.00 0.00 0.00 0.00 0.00 0.00 0.00 0.00
0.00 0.00 0.00 0.00 0.00 0.00 0.00 0.00 0.00 0.00 0.00 0.00 0.01 0.05 0.09 0.03 0.00 0.03 0.05 0.02 0.06 0.05 0.02 0.03 0.05 0.04 0.01 0.00 0.00 0.00 0.00 0.00 0.00 0.00 0.00 0.00 0.00 0.00 0.00 0.00 0.00 0.00 0.00
0.00 0.00 0.00 0.00 0.00 0.00 0.00 0.00 0.00 0.00 0.00 0.00 0.00 0.02 0.05 0.04 0.05 0.10 0.08 0.06 0.08 0.07 0.06 0.07 0.11 0.10 0.07 0.03 0.01 0.00 0.00 0.00 0.00 0.00 0.00 0.00 0.00 0.00 0.00 0.00 0.00 0.00 0.00
0.00 0.00 0.00 0.00 0.00 0.00 0.00 0.00 0.00 0.00 0.00 0.00 0.00 0.01 0.03 0.09 0.08 0.07 0.04 0.01 0.03 0.05 0.05 0.07 0.09 0.10 0.06 0.11 0.05 0.02 0.00 0.00 0.00 0.00 0.00 0.00 0.00 0.00 0.00 0.00 0.00 0.00 0.00
0.00 0.00 0.00 0.00 0.00 0.00 0.00 0.00 0.00 0.00 0.00 0.00 0.00 0.01 0.01 0.07 0.12 0.08 0.07 0.03 0.05 0.06 0.06 0.08 0.07 0.07 0.10 0.11 0.12 0.08 0.00 0.00 0.00 0.00 0.00 0.00 0.00 0.00 0.00 0.00 0.00 0.00 0.00
0.00 0.00 0.00 0.00 0.00 0.00 0.00 0.00 0.00 0.00 0.00 0.00 0.00 0.00 0.01 0.04 0.09 0.15 0.12 0.04 0.07 0.05 0.03 0.02 0.06 0.08 0.07 0.06 0.11 0.05 0.04 0.01 0.00 0.00 0.00 0.00 0.00 0.00 0.00 0.00 0.00 0.00 0.00
0.00 0.00 0.00 0.00 0.00 0.00 0.00 0.00 0.00 0.00 0.00 0.00 0.01 0.01 0.01 0.03 0.08 0.10 0.16 0.16 0.05 0.05 0.06 0.03 0.04 0.07 0.09 0.05 0.04 0.03 0.01 0.02 0.01 0.01 0.00 0.00 0.00 0.00 0.00 0.00 0.01 0.00 0.00
0.00 0.00 0.00 0.00 0.01 0.00 0.00 0.00 0.00 0.00 0.00 0.00 0.01 0.02 0.02 0.03 0.06 0.09 0.13 0.15 0.11 0.06 0.09 0.05 0.04 0.07 0.08 0.05 0.03 0.03 0.03 0.00 0.00 0.00 0.00 0.00 0.00 0.00 0.00 0.00 0.02 0.02 0.02
MSLP
1011.30 1011.19 1011.39 1011.72 1011.98 1012.30 1012.53 1012.86 1013.11 1013.34 1013.58 1013.90 1014.04 1014.24 1014.50 1014.73 1014.96 1015.15 1015.28 1015.40 1015.55 1015.61 1015.66 1015.74 1015.80 1015.89 1016.18 1016.35 1016.52 1016.63 1016.76 1016.89 1016.97 1017.04 1017.16 1017.18 1017.23 1017.27 1017.21 1017.17 1017.29 1017.50 1017.55
1011.15 1011.03 1011.38 1011.71 1012.04 1012.37 1012.64 1012.97 1013.24 1013.49 1013.78 1013.88 1014.18 1014.44 1014.65 1014.87 1015.05 1015.28 1015.42 1015.56 1015.70 1015.82 1015.86 1015.91 1015.99 1016.27 1016.46 1016.64 1016.76 1017.00 1017.14 1017.22 1017.27 1017.29 1017.38 1017.49 1017.52 1017.48 1017.51 1017.50 1017.66 1017.88 1017.87
1011.41 1011.08 1011.42 1011.79 1012.10 1012.40 1012.77 1012.95 1013.27 1013.47 1013.83 1014.03 1014.13 1014.37 1014.68 1014.99 1015.16 1015.31 1015.52 1015.60 1015.70 1015.84 1016.00 1016.12 1016.29 1016.58 1016.83 1016.99 1017.10 1017.28 1017.39 1017.44 1017.44 1017.34 1017.41 1017.62 1017.76 1017.79 1017.81 1017.94 1017.95 1018.10 1018.13
1011.52 1011.14 1011.42 1011.85 1012.08 1012.38 1012.78 1013.01 1013.28 1013.54 1013.80 1014.06 1014.27 1014.44 1014.78 1015.09 1015.25 1015.42 1015.59 1015.70 1015.83 1015.99 1016.11 1016.35 1016.62 1016.91 1017.14 1017.32 1017.48 1017.59 1017.56 1017.63 1017.59 1017.55 1017.45 1017.52 1017.82 1017.98 1018.08 1018.13 1018.17 1018.22 1018.45
1011.73 1011.52 1011.48 1011.87 1012.20 1012.44 1012.72 1013.03 1013.29 1013.56 1013.83 1014.14 1014.36 1014.52 1014.75 1015.13 1015.36 1015.48 1015.63 1015.81 1015.99 1016.17 1016.33 1016.60 1016.91 1017.18 1017.43 1017.61 1017.73 1017.78 1017.71 1017.65 1017.71 1017.77 1017.70 1017.79 1018.06 1018.33 1018.42 1018.42 1018.55 1018.62 1018.72
1012.36 1011.84 1011.65 1011.90 1012.20 1012.49 1012.81 1013.06 1013.26 1013.58 1013.87 1014.14 1014.39 1014.59 1014.70 1015.06 1015.29 1015.55 1015.75 1015.93 1016.12 1016.34 1016.59 1016.84 1017.11 1017.37 1017.59 1017.79 1017.90 1018.01 1017.98 1017.82 1017.69 1017.49 1017.69 1018.08 1018.39 1018.50 1018.60 1018.69 1018.79 1018.87 1018.91
1012.75 1012.30 1012.12 1012.20 1012.35 1012.49 1012.94 1013.20 1013.36 1013.58 1013.96 1014.17 1014.44 1014.62 1014.83 1015.11 1015.33 1015.53 1015.77 1015.98 1016.17 1016.42 1016.66 1016.95 1017.22 1017.50 1017.71 1017.89 1018.07 1018.24 1018.25 1018.10 1017.96 1017.75 1017.90 1018.23 1018.53 1018.63 1018.77 1018.87 1018.99 1019.10 1019.18
1012.96 1012.68 1012.23 1012.13 1012.42 1012.64 1012.94 1013.26 1013.39 1013.69 1013.93 1014.14 1014.34 1014.51 1014.79 1015.07 1015.30 1015.49 1015.73 1015.96 1016.17 1016.43 1016.67 1016.96 1017.23 1017.50 1017.76 1017.92 1018.02 1018.23 1018.32 1018.20 1018.09 1017.85 1018.17 1018.40 1018.57 1018.70 1018.85 1018.99 1019.10 1019.19 1019.27
1012.95 1012.88 1012.55 1012.39 1012.48 1012.67 1012.87 1013.12 1013.43 1013.67 1013.87 1014.01 1014.30 1014.45 1014.78 1015.02 1015.22 1015.46 1015.71 1015.93 1016.17 1016.38 1016.65 1016.94 1017.23 1017.52 1017.73 1017.88 1018.04 1018.24 1018.30 1018.22 1018.31 1018.10 1018.14 1018.47 1018.73 1018.84 1018.99 1019.12 1019.18 1019.26 1019.37
1013.23 1013.09 1012.93 1012.66 1012.48 1012.55 1012.74 1012.97 1013.17 1013.47 1013.71 1014.02 1014.24 1014.49 1014.77 1014.98 1015.18 1015.29 1015.62 1015.82 1016.08 1016.34 1016.64 1016.94 1017.19 1017.44 1017.69 1017.86 1018.08 1018.27 1018.30 1018.19 1018.30 1017.92 1018.31 1018.43 1018.63 1018.82 1019.03 1019.21 1019.30 1019.37 1019.45
1013.52 1013.41 1013.20 1013.15 1012.86 1012.60 1012.49 1012.61 1012.94 1013.26 1013.52 1013.74 1014.06 1014.46 1014.81 1014.95 1015.10 1015.31 1015.52 1015.74 1015.98 1016.25 1016.53 1016.82 1017.12 1017.37 1017.60 1017.82 1018.04 1018.18 1018.23 1018.13 1018.03 1017.84 1018.26 1018.28 1018.51 1018.74 1018.95 1019.11 1019.23 1019.34 1019.46
1013.75 1013.60 1013.50 1013.39 1013.20 1012.96 1012.58 1012.42 1012.72 1012.96 1013.30 1013.54 1013.70 1014.06 1014.39 1014.55 1014.61 1014.80 1015.12 1015.59 1015.87 1016.15 1016.44 1016.66 1016.97 1017.23 1017.49 1017.71 1017.94 1018.09 1018.18 1017.89 1017.83 1017.67 1018.13 1018.26 1018.45 1018.60 1018.79 1018.99 1019.12 1019.22 1019.29
1013.72 1013.56 1013.46 1013.47 1013.30 1013.10 1012.93 1012.58 1012.60 1012.67 1012.80 1013.02 1013.20 1013.37 1013.78 1013.94 1013.98 1014.32 1014.92 1015.34 1015.78 1016.17 1016.43 1016.61 1016.87 1017.08 1017.30 1017.36 1017.49 1017.71 1017.73 1017.49 1017.38 1017.39 1017.81 1018.00 1018.30 1018.51 1018.63 1018.81 1018.95 1019.00 1019.06
1013.63 1013.55 1013.38 1013.31 1013.31 1013.16 1012.91 1012.62 1012.41 1012.40 1012.34 1012.43 1012.55 1012.74 1013.05 1013.32 1013.48 1013.68 1014.32 1015.07 1015.45 1015.93 1016.27 1016.48 1016.70 1016.84 1016.90 1016.81 1016.95 1017.03 1017.06 1017.05 1016.94 1017.14 1017.48 1017.65 1017.89 1018.17 1018.34 1018.42 1018.61 1018.74 1018.83
1013.44 1013.25 1013.06 1013.01 1012.97 1012.98 1012.95 1012.53 1012.16 1012.15 1012.11 1011.72 1011.74 1011.99 1012.30 1012.51 1012.97 1013.13 1013.81 1014.51 1014.85 1015.37 1015.70 1015.93 1016.10 1016.38 1016.55 1016.41 1016.23 1016.34 1016.53 1016.62 1016.78 1016.88 1017.15 1017.36 1017.54 1017.75 1017.99 1018.11 1018.20 1018.31 1018.40
1013.05 1012.89 1012.57 1012.56 1012.55 1012.52 1012.60 1012.44 1012.13 1011.70 1011.62 1011.70 1011.36 1011.24 1011.53 1011.87 1012.36 1012.80 1013.33 1013.80 1014.33 1014.66 1015.02 1015.12 1015.45 1015.70 1015.92 1016.04 1016.09 1016.08 1016.22 1016.29 1016.40 1016.50 1016.68 1016.98 1017.16 1017.31 1017.46 1017.70 1017.82 1017.81 1017.79
1012.53 1012.40 1012.33 1012.21 1012.15 1012.12 1012.20 1012.12 1011.94 1011.44 1011.40 1011.47 1011.21 1011.00 1011.02 1011.42 1011.77 1012.02 1012.54 1013.14 1013.42 1013.81 1014.27 1014.54 1014.61 1014.85 1015.40 1015.47 1015.73 1015.78 1015.85 1015.96 1016.01 1016.01 1016.12 1016.44 1016.73 1016.90 1016.94 1016.98 1017.13 1017.32 1017.36
1012.22 1012.20 1011.90 1011.86 1011.81 1011.71 1011.74 1011.78 1011.61 1011.22 1011.03 1011.05 1011.01 1011.09 1010.95 1011.08 1011.35 1011.68 1012.02 1012.28 1012.73 1013.27 1013.74 1014.19 1014.43 1014.59 1014.91 1015.20 1015.48 1015.50 1015.58 1015.55 1015.58 1015.61 1015.63 1015.74 1015.98 1016.11 1016.30 1016.40 1016.48 1016.58 1016.72
1012.09 1011.92 1011.75 1011.34 1011.25 1011.20 1011.24 1011.25 1011.32 1011.04 1010.81 1010.62 1010.73 1010.76 1010.82 1010.82 1010.92 1011.39 1011.70 1011.65 1011.71 1012.56 1013.26 1013.78 1014.15 1014.52 1014.72 1014.88 1015.02 1015.17 1015.30 1015.42 1015.32 1015.12 1015.20 1015.29 1015.24 1015.26 1015.60 1015.76 1015.77 1016.00 1016.04
1012.38 1011.62 1011.20 1011.02 1010.70 1010.65 1010.60 1010.71 1010.71 1010.77 1010.62 1010.27 1010.27 1010.39 1010.39 1010.48 1010.51 1010.71 1011.19 1011.60 1011.73 1012.34 1013.06 1013.37 1013.69 1014.22 1014.47 1014.58 1014.74 1014.98 1014.93 1015.05 1015.12 1014.79 1014.74 1014.72 1014.65 1014.66 1014.77 1015.14 1015.38 1015.52 1015.61
1012.64 1011.77 1011.04 1010.59 1010.34 1010.32 1010.23 1010.39 1010.49 1010.43 1010.27 1010.10 1010.07 1009.82 1009.81 1010.02 1010.03 1010.38 1010.82 1011.29 1011.66 1012.18 1012.60 1012.90 1013.18 1013.97 1014.18 1014.13 1014.88 1015.07 1015.03 1014.80 1014.82 1014.58 1014.45 1014.40 1014.36 1014.21 1014.30 1014.39 1014.62 1014.85 1014.92
1012.86 1011.88 1010.95 1009.99 1009.72 1009.72 1009.73 1009.63 1009.79 1009.80 1009.68 1009.61 1009.78 1009.80 1009.43 1009.60 1009.77 1009.74 1010.16 1010.61 1011.20 1011.73 1012.16 1012.47 1012.50 1013.14 1013.68 1013.88 1014.61 1014.99 1015.08 1014.85 1014.08 1013.96 1013.98 1013.98 1013.87 1013.81 1013.95 1013.80 1013.93 1014.10 1014.28
1012.50 1011.60 1010.70 1009.87 1009.05 1009.00 1009.09 1009.21 1009.34 1009.48 1009.29 1009.12 1009.40 1009.53 1009.43 1009.40 1009.48 1009.50 1009.49 1009.95 1010.56 1010.96 1011.63 1011.76 1012.36 1012.82 1012.82 1013.43 1013.64 1014.13 1014.50 1014.34 1013.57 1012.97 1013.10 1013.11 1013.08 1013.29 1013.27 1013.25 1013.23 1013.33 1013.63
1011.58 1010.90 1010.13 1009.48 1008.89 1008.37 1008.54 1008.85 1008.99 1009.31 1009.47 1008.98 1009.02 1009.19 1009.17 1009.10 1009.16 1009.10 1009.33 1009.62 1009.71 1010.33 1010.73 1011.22 1011.65 1012.03 1012.02 1012.52 1012.98 1013.05 1013.07 1013.32 1013.66 1013.26 1012.75 1012.61 1012.42 1012.55 1012.50 1012.73 1012.82 1012.86 1013.06
1011.20 1010.33 1009.63 1009.11 1008.62 1008.01 1008.15 1008.33 1008.71 1008.89 1009.03 1008.78 1008.82 1008.90 1008.74 1008.72 1008.59 1008.75 1008.93 1009.19 1009.19 1009.50 1009.90 1010.36 1010.93 1011.50 1011.76 1012.03 1012.31 1012.20 1012.54 1012.79 1013.17 1013.61 1013.27 1012.94 1012.53 1012.13 1012.06 1012.16 1012.26 1012.34 1012.44
1011.60 1010.38 1009.31 1008.52 1008.12 1007.81 1007.79 1008.02 1008.32 1008.60 1008.64 1008.61 1008.64 1008.74 1008.75 1008.40 1008.26 1008.41 1008.64 1008.85 1009.06 1009.22 1009.34 1009.72 1010.38 1010.83 1010.86 1011.38 1011.52 1011.81 1012.26 1012.24 1012.43 1012.71 1012.82 1012.54 1012.46 1012.19 1011.78 1011.64 1011.83 1012.02 1011.97
Thickness
5768 5770 5769 5769 5769 5768 5767 5766 5766 5765 5764 5762 5761 5759 5757 5755 5753 5752 5751 5751 5750 5750 5749 5748 5747 5746 5743 5741 5739 5738 5737 5736 5736 5736 5735 5734 5734 5733 5733 5734 5732 5730 5729
5770 5770 5767 5765 5764 5763 5763 5762 5761 5761 5759 5760 5758 5757 5755 5753 5752 5750 5749 5749 5748 5747 5747 5747 5746 5742 5740 5739 5737 5735 5734 5733 5733 5733 5732 5732 5732 5732 5731 5731 5730 5727 5727
5764 5767 5765 5762 5760 5759 5758 5758 5757 5757 5756 5756 5756 5755 5753 5751 5750 5749 5747 5747 5747 5746 5745 5744 5743 5740 5738 5736 5735 5733 5732 5732 5732 5732 5732 5730 5729 5729 5729 5728 5728 5726 5725
5760 5764 5763 5760 5759 5757 5754 5754 5753 5753 5752 5752 5751 5751 5749 5748 5747 5746 5745 5745 5744 5743 5742 5741 5739 5737 5735 5733 5731 5730 5730 5730 5730 5730 5731 5730 5727 5726 5725 5725 5725 5725 5723
5755 5757 5759 5758 5756 5755 5753 5751 5750 5749 5747 5746 5746 5746 5746 5744 5743 5743 5743 5742 5741 5740 5739 5738 5735 5733 5732 5730 5729 5728 5729 5729 5728 5729 5728 5727 5725 5722 5722 5721 5720 5720 5719
5745 5751 5753 5753 5753 5752 5749 5747 5747 5745 5743 5741 5741 5741 5741 5740 5740 5738 5738 5739 5737 5736 5735 5733 5732 5730 5728 5727 5726 5725 5726 5727 5728 5729 5727 5724 5722 5720 5719 5718 5717 5716 5716
5737 5742 5745 5746 5747 5747 5745 5743 5743 5742 5739 5738 5737 5736 5736 5735 5735 5735 5734 5734 5734 5733 5732 5730 5728 5727 5725 5724 5722 5722 5722 5724 5725 5726 5725 5722 5719 5717 5716 5715 5714 5713 5712
5729 5733 5739 5741 5742 5741 5740 5739 5739 5737 5736 5735 5734 5733 5731 5730 5731 5731 5730 5730 5730 5729 5728 5727 5725 5723 5722 5721 5720 5719 5719 5721 5722 5724 5721 5720 5717 5715 5714 5712 5711 5710 5709
5722 5725 5730 5733 5734 5735 5735 5735 5734 5734 5733 5733 5731 5731 5728 5727 5726 5726 5726 5725 5725 5726 5725 5724 5722 5720 5719 5718 5717 5716 5716 5718 5719 5720 5719 5717 5714 5712 5711 5709 5709 5708 5706
5713 5716 5720 5725 5728 5730 5731 5731 5730 5730 5730 5729 5728 5727 5726 5724 5723 5723 5721 5721 5721 5720 5720 5719 5718 5717 5716 5715 5714 5713 5714 5715 5715 5717 5714 5714 5711 5709 5707 5706 5705 5704 5703
5704 5706 5710 5713 5718 5722 5725 5727 5726 5726 5725 5726 5725 5723 5723 5721 5720 5719 5718 5718 5717 5715 5715 5715 5714 5713 5712 5711 5710 5710 5710 5712 5713 5714 5711 5711 5709 5706 5705 5703 5702 5701 5700
5694 5698 5701 5704 5707 5713 5717 5721 5721 5721 5720 5721 5722 5720 5720 5720 5720 5719 5717 5715 5714 5712 5710 5710 5709 5709 5708 5708 5707 5707 5707 5710 5710 5711 5708 5707 5705 5703 5701 5699 5698 5697 5696
5688 5691 5694 5696 5699 5703 5707 5712 5715 5716 5717 5718 5718 5719 5717 5718 5719 5718 5715 5713 5710 5709 5707 5705 5705 5704 5704 5705 5705 5705 5705 5707 5709 5709 5706 5704 5701 5699 5697 5696 5694 5694 5693
5681 5684 5687 5689 5691 5694 5699 5704 5708 5711 5714 5715 5716 5716 5716 5716 5716 5716 5715 5709 5708 5705 5704 5703 5701 5700 5700 5702 5702 5703 5704 5705 5706 5705 5703 5701 5699 5696 5694 5693 5691 5690 5689
5675 5679 5681 5684 5686 5688 5691 5696 5701 5705 5707 5712 5714 5714 5713 5714 5713 5714 5710 5707 5706 5703 5702 5701 5700 5698 5698 5699 5702 5702 5701 5701 5700 5701 5700 5697 5696 5693 5691 5690 5688 5687 5686
5671 5674 5679 5681 5682 5682 5683 5687 5693 5698 5702 5704 5708 5711 5711 5710 5709 5709 5707 5705 5702 5701 5700 5701 5698 5698 5697 5697 5698 5697 5696 5696 5696 5695 5695 5694 5692 5690 5688 5686 5684 5684 5684
5668 5669 5671 5674 5677 5678 5678 5680 5684 5690 5692 5694 5699 5704 5705 5705 5706 5705 5704 5704 5701 5700 5699 5698 5700 5696 5695 5694 5694 5693 5693 5692 5692 5693 5692 5690 5688 5687 5686 5685 5684 5682 5680
5661 5662 5665 5667 5669 5671 5672 5674 5676 5681 5684 5686 5689 5691 5695 5698 5698 5699 5700 5700 5700 5696 5694 5693 5692 5692 5691 5689 5687 5688 5688 5688 5688 5689 5689 5690 5689 5687 5685 5683 5681 5680 5678
5651 5653 5655 5657 5659 5662 5664 5666 5668 5671 5676 5678 5680 5682 5685 5688 5690 5689 5693 5696 5698 5695 5690 5688 5685 5683 5684 5683 5682 5683 5683 5683 5684 5684 5687 5686 5688 5687 5685 5682 5681 5678 5676
5634 5641 5644 5647 5648 5651 5654 5655 5657 5660 5663 5670 5672 5675 5677 5678 5683 5686 5687 5686 5687 5687 5683 5682 5681 5678 5676 5677 5678 5676 5677 5677 5677 5682 5684 5684 5683 5684 5683 5679 5678 5675 5672
5619 5626 5633 5636 5637 5638 5641 5642 5642 5645 5650 5658 5660 5664 5669 5670 5674 5676 5677 5676 5677 5676 5677 5677 5676 5671 5671 5671 5664 5664 5667 5669 5672 5676 5678 5679 5680 5679 5679 5679 5674 5671 5669
5601 5607 5614 5623 5624 5624 5626 5630 5630 5633 5639 5646 5650 5651 5658 5660 5664 5670 5668 5668 5667 5667 5668 5670 5671 5668 5667 5663 5657 5653 5651 5658 5670 5671 5671 5674 5675 5674 5672 5673 5671 5668 5664
5581 5587 5594 5602 5608 5608 5609 5611 5614 5615 5624 5632 5638 5638 5644 5648 5652 5658 5662 5661 5660 5661 5661 5663 5662 5662 5662 5657 5657 5651 5643 5645 5658 5668 5669 5671 5672 5669 5669 5666 5665 5664 5659
5575 5576 5579 5584 5588 5591 5589 5591 5595 5594 5599 5613 5622 5624 5628 5634 5641 5646 5650 5652 5655 5654 5654 5654 5656 5658 5656 5654 5652 5652 5654 5650 5644 5648 5660 5663 5665 5664 5664 5661 5659 5656 5652
5562 5563 5567 5571 5574 5577 5574 5574 5574 5577 5582 5594 5603 5609 5616 5622 5630 5636 5640 5644 5646 5649 5649 5650 5649 5647 5648 5647 5647 5649 5647 5646 5641 5635 5641 5646 5651 5659 5658 5656 5651 5648 5643
5547 5551 5557 5562 5564 5563 5563 5561 5561 5561 5566 5574 5585 5590 5598 5609 5616 5623 5628 5633 5633 5638 5643 5644 5641 5639 5642 5640 5640 5641 5636 5637 5636 5630 5628 5636 5636 5642 5644 5646 5643 5639 5635